Retour au catalogue

FENGYUN 1C DEB

ActifPO
NORAD 30552·DEBRIS·🇨🇳 China

Lancé May 10, 1999 depuis Taiyuan Satellite Launch Center

Loading…

Prochains Passages (prochaines 24 heures)

TLE

FraisSource: Space-Track

Époque: Sep 14, 2026, 08:56 UTC

1 30552U 99025AKS 26257.37288220  .00008335  00000-0  16907-2 0  9998
2 30552  98.8466  51.4536 0013376 135.5029 224.7246 14.61421471 16697

Suivez FENGYUN 1C DEB en temps réel avec AllMySat

Download on the App Store